Location: 5810 Zion Rd, Cleves, OH 45002, USA
(39.1922°N, 84.7113°W)
Time: 06:29:13
(UTC-05:00)

Vanguard 1 Rocket - Visible Passes

Search period start: 13 December 2019 00:00
Search period end: 23 December 2019 00:00
Orbit: 650 x 4226 km, 34.3° (Epoch: 12 December)

Date Brightness Start Highest point End Pass type
(mag) Time Alt. Az. Time Alt. Az. Time Alt. Az.
13 Dec 9.9 19:31:15 10° SW 19:53:25 50° SSE 19:58:53 39° ESE visible
13 Dec 10.1 22:03:24 10° WSW 22:16:11 44° WSW 22:16:11 44° WSW visible
14 Dec 10.5 18:17:41 10° SSW 18:39:45 40° SSE 18:51:45 18° E visible
14 Dec 9.6 20:47:45 10° WSW 21:09:02 64° S 21:09:02 64° S visible
14 Dec 10.9 23:21:25 10° W 23:26:20 21° W 23:26:20 21° W visible
15 Dec 9.8 19:32:39 10° SW 19:55:59 57° SSE 20:01:53 42° ESE visible
15 Dec 10.1 22:05:40 10° WSW 22:19:10 46° WSW 22:19:10 46° WSW visible
16 Dec 10.4 18:18:35 10° SW 18:42:08 47° SSE 18:54:42 20° E visible
16 Dec 9.5 20:49:46 10° WSW 21:12:00 69° S 21:12:00 69° S visible
16 Dec 10.9 23:23:53 10° W 23:29:17 22° W 23:29:17 22° W visible
17 Dec 9.8 19:34:19 10° SW 19:58:33 63° SSE 20:04:48 45° ESE visible
17 Dec 10.1 22:08:01 10° W 22:22:05 48° WSW 22:22:05 48° WSW visible
18 Dec 10.4 18:19:52 10° SW 18:44:30 54° SSE 18:57:37 21° E visible
18 Dec 9.5 20:51:55 10° WSW 21:14:48 73° S 21:14:53 73° S visible
18 Dec 10.9 23:26:22 10° W 23:32:11 23° W 23:32:11 23° W visible
19 Dec 10.9 17:06:45 10° SSW 17:30:15 44° SSE 17:48:20 10° E visible
19 Dec 9.8 19:36:13 10° WSW 20:01:06 69° SSE 20:07:41 46° ESE visible
19 Dec 10.1 22:10:23 10° W 22:24:58 49° WSW 22:24:58 49° WSW visible
20 Dec 10.4 18:21:27 10° SW 18:46:52 61° SSE 19:00:28 22° E visible
20 Dec 9.6 20:54:11 10° W 21:17:30 75° S 21:17:45 74° S visible
20 Dec 10.9 23:28:50 10° W 23:35:02 23° W 23:35:02 23° W visible
21 Dec 10.9 17:07:57 10° SW 17:32:22 51° SSE 17:51:27 10° E visible
21 Dec 9.8 19:38:19 10° WSW 20:03:40 73° S 20:10:32 47° ESE visible
21 Dec 10.1 22:12:47 10° W 22:27:49 49° WSW 22:27:49 49° WSW visible
22 Dec 10.4 18:23:18 10° WSW 18:49:14 67° SSE 19:03:19 22° E visible
22 Dec 9.6 20:56:31 10° W 21:20:10 75° S 21:20:36 74° S visible
22 Dec 10.9 23:31:20 10° W 23:37:52 23° W 23:37:52 23° W visible
